Weather in Mayskiy

Russia / Vologda Oblast     59°15′27″N   39°44′41″E
В апреле 2022 года жителям России запретили посещать сайт meteo.paraplan.net по решению Генеральной прокуратуры. Аудитория сайта уменьшилась в 10 раз. Владельцы сайта не видят смысла в поддержке погодного сервера в таких условиях. Сайт будет закрыт в октябре.
temp.,
°C
wind,
m/s
gust,
m/s
humid.,
%
clouds,
%
prec.,
mm/h
press.,
hPa
HPBL,
m
25 september, sun
sun2500:00+8ene61297100 0.6 1002513
03:00+8se499175 0.8 1004489
06:00+8e3991100 0.0 1005351
09:00+8ese489291 0.1 1006507
12:00+10ese467491 0.0 1007821
15:00+11ese4665100 0.1 10071106
18:00+10ne2273100 0.0 100730
21:00+9ene2486100 0.1 100784
26 september, mon
mon2600:00+7ene2496100 0.1 1007103
03:00+7nne2596100 0.1 1006142
06:00+7n2697100 0.4 1005297
09:00+7nw3792100 1.3 1005444
12:00+7nnw3595100 0.3 1005399
15:00+7ene3696100 1.4 1007392
18:00+6ene4796100 0.8 1008406
21:00+6ene3696100 1.1 1009328
27 september, tue
tue2700:00+6e249799 0.2 1010245
03:00+6ese2398100 0.2 1011168
06:00+6sse249792 0.0 1012143
09:00+8sse2594100 0.1 1013246
12:00+10ssw2478100 0.0 1015675
15:00+11se126980 0.2 1016723
18:00+7ese33917 0.2 101751
21:00+6se349434 0.2 101860
28 september, wed
wed2800:00+5ese239353 0.0 101942
03:00+5e379856 0.0 1019146
06:00+6ese4995100 0.1 1020478
09:00+7e588759 0.1 1020564
12:00+7ese687698 0.0 1020789
15:00+8e786299 0.0 10191235
18:00+6e6126386 0.0 1019600
21:00+4e6136898 0.0 1020742
29 september, thu
thu2900:00+3e61374100 0.0 1020781
03:00+2e61475100 0.0 1020674
06:00+1e71576100 0.0 1020668
09:00+2e81567100 0.0 1020728
12:00+5ese81253100 0.0 1021889
15:00+6ese71050100 0.0 10221023
18:00+5ese6115497 0.0 1023849
21:00+4ese5116185 0.0 1024637